PACCTY Weather Reports


Display with metric or nautical units.
time (UTC)temp
F
wind
direction
speed
MPH
gust
MPH
rain 1hr
in
rain 24hr
in
rain mn
in
humidity
%
barometer
mb
20260505050516 56 214 1.0 2.0 0.00 0.00 0.00 91 1012.2
20260505041519 56 0 0.0 2.0 0.00 0.00 0.00 89 1011.9
20260505041017 56 0 0.0 2.0 0.00 0.00 0.00 89 1011.9
20260505040516 56 0 0.0 2.0 0.00 0.00 0.00 88 1011.8
20260505035516 56 217 1.0 4.0 0.00 0.00 0.00 88 1011.6
20260505034017 56 231 0.0 3.0 0.00 0.00 0.00 87 1011.5
20260505033516 56 215 0.0 3.0 0.00 0.00 0.00 87 1011.5
20260505032516 56 253 1.0 3.0 0.00 0.00 0.00 87 1011.3
20260505032016 56 226 0.0 3.0 0.00 0.00 0.00 87 1011.3
20260505031517 56 226 1.0 3.0 0.00 0.00 0.00 87 1011.3
20260505031016 57 226 0.0 3.0 0.00 0.00 0.00 87 1011.1
20260505030516 57 203 1.0 3.0 0.00 0.00 0.00 86 1011.1
20260505030019 57 203 1.0 3.0 0.00 0.00 0.00 86 1011.0
20260505025516 57 210 1.0 2.0 0.00 0.00 0.00 86 1011.1
20260505025018 57 210 1.0 2.0 0.00 0.00 0.00 85 1011.1
20260505024516 57 235 2.0 8.0 0.00 0.00 0.00 85 1011.1
20260505024016 57 235 1.0 8.0 0.00 0.00 0.00 85 1011.0
20260505023516 57 221 2.0 6.0 0.00 0.00 0.00 85 1011.0
20260505023016 57 221 3.0 6.0 0.00 0.00 0.00 85 1011.0
20260505022516 57 217 2.0 5.0 0.00 0.00 0.00 85 1010.9
20260505022016 57 217 2.0 5.0 0.00 0.00 0.00 84 1011.0
20260505021516 58 245 1.0 5.0 0.00 0.00 0.00 84 1011.0
20260505021016 58 271 2.0 5.0 0.00 0.00 0.00 84 1011.0
20260505020018 58 264 3.0 5.0 0.00 0.00 0.00 83 1011.0
20260505015516 58 246 2.0 4.0 0.00 0.00 0.00 82 1011.1
20260505015016 59 226 2.0 5.0 0.00 0.00 0.00 82 1011.1
20260505014516 59 226 2.0 5.0 0.00 0.00 0.00 82 1011.1
20260505014017 59 233 3.0 5.0 0.00 0.00 0.00 81 1011.1
20260505013516 59 233 2.0 5.0 0.00 0.00 0.00 81 1011.1
20260505013016 60 221 1.0 4.0 0.00 0.00 0.00 81 1011.1
20260505012516 60 221 2.0 4.0 0.00 0.00 0.00 80 1011.1
20260505012016 60 197 2.0 4.0 0.00 0.00 0.00 81 1011.1
20260505011517 60 197 3.0 4.0 0.00 0.00 0.00 80 1011.1
20260505010516 60 229 3.0 4.0 0.00 0.00 0.00 79 1011.1
20260505010018 60 225 2.0 5.0 0.00 0.00 0.00 80 1011.1
20260505005516 60 249 3.0 5.0 0.00 0.00 0.00 80 1011.1
20260505005016 61 235 4.0 4.0 0.00 0.00 0.00 79 1011.1
20260505004516 61 207 2.0 5.0 0.00 0.00 0.00 79 1011.2
20260505003516 61 235 2.0 5.0 0.00 0.00 0.00 78 1011.2
20260505003019 61 235 2.0 5.0 0.00 0.00 0.00 79 1011.2
20260505002516 61 243 3.0 6.0 0.00 0.00 0.00 78 1011.2
20260505001016 62 239 4.0 6.0 0.00 0.00 0.00 78 1011.2
20260504235016 62 215 4.0 8.0 0.00 0.00 0.00 75 1011.3
20260504234516 63 217 3.0 6.0 0.00 0.00 0.00 75 1011.4
20260504234016 63 217 3.0 6.0 0.00 0.00 0.00 75 1011.4
20260504232015 64 219 2.0 11.0 0.00 0.00 0.00 74 1011.5
20260504231516 64 245 2.0 11.0 0.00 0.00 0.00 73 1011.5
20260504231017 64 201 4.0 5.0 0.00 0.00 0.00 73 1011.4
20260504230515 64 201 2.0 6.0 0.00 0.00 0.00 74 1011.4
20260504230016 64 229 4.0 6.0 0.00 0.00 0.00 73 1011.4
20260504225516 64 229 2.0 6.0 0.00 0.00 0.00 75 1011.5
20260504225015 65 204 3.0 9.0 0.00 0.00 0.00 73 1011.5
20260504224516 65 204 2.0 9.0 0.00 0.00 0.00 73 1011.5
20260504224015 65 257 2.0 9.0 0.00 0.00 0.00 74 1011.6
20260504223515 65 257 3.0 9.0 0.00 0.00 0.00 74 1011.5
20260504222516 65 280 3.0 7.0 0.00 0.00 0.00 74 1011.6
20260504222015 65 235 2.0 7.0 0.00 0.00 0.00 74 1011.7
20260504221518 65 231 5.0 5.0 0.00 0.00 0.00 73 1011.7
20260504221015 65 231 2.0 8.0 0.00 0.00 0.00 74 1011.7
20260504220516 64 217 3.0 8.0 0.00 0.00 0.00 75 1011.8
20260504220016 64 261 3.0 8.0 0.00 0.00 0.00 75 1011.8
20260504215516 64 214 3.0 5.0 0.00 0.00 0.00 75 1011.8
20260504213515 64 259 2.0 9.0 0.00 0.00 0.00 76 1011.9
20260504213015 64 259 2.0 9.0 0.00 0.00 0.00 75 1011.9
20260504212515 64 254 2.0 6.0 0.00 0.00 0.00 77 1011.9
20260504212015 63 254 2.0 6.0 0.00 0.00 0.00 77 1011.9
20260504211515 63 214 2.0 5.0 0.00 0.00 0.00 77 1012.0
20260504210515 63 224 2.0 6.0 0.00 0.00 0.00 78 1012.1
20260504205015 63 224 2.0 6.0 0.00 0.00 0.00 79 1012.1
20260504204015 62 275 3.0 6.0 0.00 0.00 0.00 79 1012.2
20260504203016 62 236 3.0 6.0 0.00 0.00 0.00 80 1012.2
20260504202515 62 236 3.0 6.0 0.00 0.00 0.00 81 1012.2
20260504202015 62 236 2.0 9.0 0.00 0.00 0.00 81 1012.2
20260504201515 61 236 2.0 9.0 0.00 0.00 0.00 82 1012.3
20260504195515 61 253 2.0 6.0 0.00 0.00 0.00 82 1012.5
20260504195015 61 245 2.0 6.0 0.00 0.00 0.00 81 1012.5
20260504194016 61 0 0.0 0.0 0.00 0.00 0.00 82 1012.4
20260504193515 61 0 0.0 0.0 0.00 0.00 0.00 82 1012.3
20260504192515 61 0 0.0 0.0 0.00 0.00 0.00 83 1012.3
20260504192016 61 0 0.0 0.0 0.00 0.00 0.00 82 1012.3
20260504191516 61 0 0.0 0.0 0.00 0.00 0.00 83 1012.3
20260504191015 60 0 0.0 0.0 0.00 0.00 0.00 83 1012.3
20260504184015 60 0 0.0 0.0 0.00 0.00 0.00 84 1012.4
20260504183546 60 0 0.0 0.0 0.00 0.00 0.00 84 1012.2
20260504183515 60 0 0.0 0.0 0.00 0.00 0.00 84 1012.2
20260504183015 60 0 0.0 0.0 0.00 0.00 0.00 84 1012.2
20260504182015 60 0 0.0 0.0 0.00 0.00 0.00 84 1012.2
20260504181515 59 0 0.0 0.0 0.00 0.00 0.00 84 1012.2
20260504181015 59 0 0.0 0.0 0.00 0.00 0.00 84 1012.1
20260504180015 59 0 0.0 0.0 0.00 0.00 0.00 85 1012.0
20260504175015 59 0 0.0 0.0 0.00 0.00 0.00 86 1011.9
20260504174515 59 0 0.0 0.0 0.00 0.00 0.00 86 1011.9
20260504174015 59 0 0.0 0.0 0.00 0.00 0.00 86 1011.9
20260504173515 59 0 0.0 0.0 0.00 0.00 0.00 87 1011.9
20260504171515 58 0 0.0 0.0 0.00 0.00 0.00 87 1011.9
20260504171015 58 0 0.0 0.0 0.00 0.00 0.00 87 1011.9
20260504170515 58 0 0.0 0.0 0.00 0.00 0.00 87 1011.9
20260504151017 56 0 0.0 0.0 0.00 0.00 0.00 91 1011.6
20260504150515 56 0 0.0 0.0 0.00 0.00 0.00 91 1011.5
20260504141015 55 0 0.0 0.0 0.00 0.00 0.00 92 1011.1
20260504140516 55 0 0.0 0.0 0.00 0.00 0.00 92 1011.1
20260504130515 55 0 0.0 0.0 0.00 0.00 0.00 92 1010.6
20260504110515 55 0 0.0 0.0 0.00 0.00 0.00 92 1010.2
20260504100514 55 0 0.0 0.0 0.00 0.00 0.00 91 1010.1
20260504081514 55 0 0.0 0.0 0.00 0.00 0.00 92 1009.7
20260504080514 55 0 0.0 0.0 0.00 0.00 0.00 92 1009.7